Daleville, AL

11:43 AM CST on December 09, 2016 (GMT -0600)
Cairns Army Air Field

Weather History for KOZR - May, 2013

Change the Weather History Date:

Wednesday, May 22, 2013

  Actual Average Record
Temperature  
Mean Temperature 78 °F -  
Max Temperature 89 °F 83 °F 93 °F (1998)
Min Temperature 68 °F 61 °F 50 °F (2002)
Cooling Degree Days 13    
Growing Degree Days 28 (Base 50)    
Moisture  
Dew Point 69 °F    
Average Humidity 88    
Maximum Humidity 100    
Minimum Humidity 47    
Precipitation  
Precipitation 0.00 in - - ()
Sea Level Pressure  
Sea Level Pressure 29.97 in    
Wind  
Wind Speed 2 mph (SW)    
Max Wind Speed 7 mph    
Max Gust Speed -    
Visibility 5 miles    
Events Fog    
Averages and records for this station are not official NWS values.
T = Trace of Precipitation, MM = Missing Value Source: NWS Daily Summary

Daily Weather History Graph

Daily Weather History Graph

Search for Another Location

Airport or City:

Trip Planner

Search our weather history database for the weather conditions in past years. The results will help you decide how hot, cold, wet, or windy it might be!

Date:

Astronomy

May. 22, 2013 Rise Set
Actual Time 5:42 AM CDT 7:36 PM CDT
Civil Twilight 5:15 AM CDT 8:03 PM CDT
Nautical Twilight 4:43 AM CDT 8:36 PM CDT
Astronomical Twilight 4:08 AM CDT 9:11 PM CDT
Moon 5:06 PM CDT (5/22) 3:35 AM CDT (5/22)
Length of Visible Light 14h 47m
Length of Day
13h 53m
Waxing Gibbous, 91% of the Moon is Illuminated
May 22
Waxing Gibbous
May 24
Full
May 31
Last Quarter
Jun 8
New
Jun 16
First Quarter

Hourly Weather History & Observations

Time (CDT) Temp. Heat Index Dew Point Humidity Pressure Visibility Wind Dir Wind Speed Gust Speed Precip Events Conditions
12:58 AM 70.9 °F - 68.0 °F 91% 29.97 in 10.0 mi SSE 4.6 mph - N/A   Clear
1:58 AM 69.4 °F - 67.6 °F 94% 29.95 in 10.0 mi South 3.5 mph - N/A   Clear
2:58 AM 68.9 °F - 67.8 °F 96% 29.93 in 10.0 mi West 1.2 mph - N/A   Clear
3:36 AM 68.0 °F - 66.2 °F 94% 29.95 in 8.0 mi Calm Calm - N/A   Partly Cloudy
3:51 AM 68.0 °F - 68.0 °F 100% 29.94 in 4.0 mi West 1.2 mph - N/A   Mostly Cloudy
3:56 AM 68.0 °F - 68.0 °F 100% 29.94 in 2.0 mi WNW 1.2 mph - N/A   Mostly Cloudy
3:58 AM 68.4 °F - 67.6 °F 98% 29.94 in 2.0 mi Variable 2.3 mph - N/A   Mostly Cloudy
4:03 AM 68.0 °F - 68.0 °F 100% 29.95 in 3.0 mi Calm Calm - N/A   Overcast
4:08 AM 68.0 °F - 68.0 °F 100% 29.95 in 6.0 mi SE 1.2 mph - N/A   Overcast
4:23 AM 69.8 °F - 68.0 °F 94% 29.95 in 2.0 mi SW 2.3 mph - N/A   Overcast
4:33 AM 69.8 °F - 68.0 °F 94% 29.96 in 3.0 mi ENE 1.2 mph - N/A   Overcast
4:58 AM 69.8 °F - 68.0 °F 94% 29.96 in 2.5 mi ESE 2.3 mph - N/A   Overcast
5:08 AM 69.8 °F - 68.0 °F 94% 29.96 in 3.0 mi Variable 2.3 mph - N/A   Overcast
5:18 AM 69.8 °F - 68.0 °F 94% 29.97 in 1.8 mi ENE 2.3 mph - N/A   Overcast
5:23 AM 69.8 °F - 68.0 °F 94% 29.97 in 2.0 mi Calm Calm - N/A   Overcast
5:38 AM 69.8 °F - 68.0 °F 94% 29.97 in 0.8 mi ENE 2.3 mph - N/A   Overcast
5:43 AM 68.0 °F - 68.0 °F 100% 29.98 in 0.2 mi NE 2.3 mph - N/A Fog Fog
5:58 AM 68.7 °F - 68.4 °F 99% 29.98 in 0.2 mi NNE 1.2 mph - N/A Fog Fog
6:03 AM 68.0 °F - 68.0 °F 100% 29.99 in 0.2 mi Calm Calm - N/A Fog Fog
6:13 AM 68.0 °F - 68.0 °F 100% 29.99 in 0.2 mi Calm Calm - N/A Fog Fog
6:28 AM 69.8 °F - 69.8 °F 100% 29.98 in 0.2 mi Calm Calm - N/A Fog Fog
6:38 AM 69.8 °F - 69.8 °F 100% 29.98 in 0.2 mi West 2.3 mph - N/A Fog Fog
6:48 AM 69.8 °F - 69.8 °F 100% 29.98 in 0.2 mi Calm Calm - N/A Fog Fog
6:53 AM 69.8 °F - 69.8 °F 100% 29.98 in 0.2 mi Calm Calm - N/A Fog Fog
6:58 AM 69.6 °F - 69.6 °F 100% 29.98 in 0.5 mi Calm Calm - N/A Fog Fog
7:03 AM 69.8 °F - 69.8 °F 100% 29.98 in 0.5 mi Calm Calm - N/A Fog Fog
7:08 AM 69.8 °F - 69.8 °F 100% 29.99 in 0.5 mi Calm Calm - N/A Fog Fog
7:13 AM 69.8 °F - 69.8 °F 100% 29.99 in 0.5 mi ESE 2.3 mph - N/A Fog Fog
7:18 AM 69.8 °F - 69.8 °F 100% 29.99 in 1.0 mi ESE 2.3 mph - N/A   Overcast
7:28 AM 69.8 °F - 69.8 °F 100% 29.99 in 0.8 mi ESE 1.2 mph - N/A   Overcast
7:33 AM 69.8 °F - 69.8 °F 100% 29.99 in 0.8 mi SSE 2.3 mph - N/A   Overcast
7:38 AM 69.8 °F - 69.8 °F 100% 30.00 in 0.5 mi East 2.3 mph - N/A Fog Fog
7:43 AM 69.8 °F - 69.8 °F 100% 29.99 in 0.5 mi NE 2.3 mph - N/A Fog Fog
7:48 AM 69.8 °F - 69.8 °F 100% 30.00 in 0.5 mi Calm Calm - N/A Fog Fog
7:53 AM 69.8 °F - 69.8 °F 100% 30.00 in 1.2 mi Variable 1.2 mph - N/A   Overcast
7:58 AM 70.3 °F - 70.3 °F 100% 30.00 in 5.0 mi WNW 3.5 mph - N/A   Overcast
8:08 AM 71.6 °F - 71.6 °F 100% 30.00 in 10.0 mi North 2.3 mph - N/A   Overcast
8:13 AM 71.6 °F - 71.6 °F 100% 30.00 in 10.0 mi Variable 2.3 mph - N/A   Overcast
8:38 AM 75.2 °F - 69.8 °F 83% 30.00 in 10.0 mi West 3.5 mph - N/A   Mostly Cloudy
8:48 AM 75.2 °F - 68.0 °F 78% 30.00 in 10.0 mi Calm Calm - N/A   Scattered Clouds
8:58 AM 75.4 °F - 68.7 °F 80% 30.00 in 10.0 mi SW 2.3 mph - N/A   Partly Cloudy
9:58 AM 79.0 °F - 68.5 °F 70% 30.00 in 10.0 mi Variable 5.8 mph - N/A   Partly Cloudy
10:58 AM 81.9 °F 85.0 °F 68.7 °F 64% 30.02 in 10.0 mi South 5.8 mph - N/A   Scattered Clouds
11:58 AM 83.5 °F 86.4 °F 68.0 °F 59% 30.00 in 10.0 mi Variable 3.5 mph - N/A   Partly Cloudy
12:58 PM 86.0 °F 88.2 °F 66.2 °F 51% 29.98 in 7.0 mi Variable 4.6 mph - N/A   Mostly Cloudy
1:58 PM 86.9 °F 89.3 °F 66.4 °F 50% 29.95 in 10.0 mi SW 5.8 mph - N/A   Scattered Clouds
2:58 PM 88.3 °F 90.5 °F 65.5 °F 47% 29.92 in 10.0 mi SW 6.9 mph - N/A   Scattered Clouds
3:58 PM 87.6 °F 89.4 °F 64.9 °F 47% 29.90 in 10.0 mi SW 5.8 mph - N/A   Mostly Cloudy
4:58 PM 87.8 °F 90.0 °F 65.7 °F 48% 29.89 in 10.0 mi SW 6.9 mph - N/A   Partly Cloudy
5:58 PM 84.0 °F 86.8 °F 67.5 °F 57% 29.89 in 10.0 mi SW 5.8 mph - N/A   Mostly Cloudy
6:58 PM 81.3 °F 84.5 °F 69.1 °F 66% 29.90 in 10.0 mi WSW 5.8 mph - N/A   Mostly Cloudy
7:58 PM 78.4 °F - 68.7 °F 72% 29.92 in 10.0 mi West 4.6 mph - N/A   Mostly Cloudy
8:58 PM 76.3 °F - 68.0 °F 75% 29.94 in 10.0 mi West 4.6 mph - N/A   Overcast
9:58 PM 75.2 °F - 68.0 °F 78% 29.95 in 10.0 mi WSW 3.5 mph - N/A   Clear
10:58 PM 74.1 °F - 69.3 °F 85% 29.95 in 10.0 mi WSW 4.6 mph - N/A   Mostly Cloudy
11:58 PM 72.3 °F - 69.4 °F 91% 29.95 in 10.0 mi WSW 4.6 mph - N/A   Clear